Temp
-5 -5 -6 -6 -6 -6 -6 -6 -6 -6 -6 -6 -6 -6 -6 -6 -6 -6 -6 -6 -6 -6 -6 -6 -6 -6 -6 -6 -6 -6 -6 -6 -6 -5 -5 -5 -5 -5 -5 -6 -6 -6 -6 -6 -6 -6 -6 -6 -7 -7 -7 -7 -7 -7 -7 -7 -7 -7 -7 -7 -7 -7 -7
-6 -6 -6 -6 -6 -6 -6 -6 -6 -6 -6 -6 -6 -6 -6 -6 -6 -6 -6 -6 -6 -6 -6 -6 -6 -6 -6 -6 -6 -6 -6 -6 -6 -6 -6 -6 -5 -5 -6 -6 -6 -6 -6 -6 -6 -6 -6 -6 -7 -7 -7 -7 -7 -7 -7 -7 -7 -7 -7 -7 -8 -8 -8
-6 -6 -6 -6 -6 -6 -6 -6 -6 -6 -6 -6 -6 -6 -6 -6 -6 -6 -6 -6 -6 -6 -6 -6 -6 -6 -6 -6 -6 -6 -6 -6 -6 -6 -6 -6 -6 -6 -6 -6 -6 -6 -6 -6 -6 -7 -7 -7 -7 -7 -7 -7 -7 -7 -7 -7 -7 -8 -8 -8 -8 -8 -8
-6 -6 -6 -6 -6 -6 -7 -7 -7 -6 -6 -6 -6 -6 -6 -6 -6 -6 -6 -6 -6 -6 -6 -6 -6 -6 -6 -6 -6 -6 -6 -6 -6 -6 -6 -6 -6 -6 -6 -6 -6 -6 -7 -7 -7 -7 -7 -7 -7 -7 -7 -7 -7 -7 -7 -7 -7 -8 -8 -8 -8 -8 -8
-7 -7 -7 -7 -7 -7 -7 -7 -7 -7 -7 -7 -7 -7 -7 -6 -6 -6 -6 -6 -6 -6 -6 -6 -6 -6 -6 -6 -6 -6 -6 -6 -6 -6 -6 -6 -6 -6 -6 -7 -7 -7 -7 -7 -7 -7 -7 -7 -7 -7 -7 -7 -7 -7 -7 -7 -8 -8 -8 -8 -8 -8 -8
-7 -7 -7 -7 -7 -7 -7 -7 -7 -7 -7 -7 -7 -7 -7 -7 -7 -7 -7 -6 -6 -6 -6 -6 -6 -6 -6 -6 -6 -6 -6 -6 -6 -6 -6 -7 -7 -7 -7 -7 -7 -7 -7 -7 -7 -7 -7 -7 -7 -7 -7 -7 -7 -7 -7 -8 -8 -8 -8 -8 -8 -8 -8
-7 -7 -7 -7 -7 -7 -7 -7 -7 -7 -7 -7 -7 -7 -7 -7 -7 -7 -7 -7 -7 -6 -6 -6 -6 -6 -6 -6 -6 -6 -6 -6 -7 -7 -7 -7 -7 -7 -7 -7 -7 -7 -7 -7 -7 -7 -7 -7 -7 -7 -7 -8 -8 -8 -8 -8 -8 -8 -8 -8 -8 -8 -8
-7 -7 -7 -7 -7 -7 -7 -7 -7 -7 -7 -7 -7 -7 -7 -7 -7 -7 -7 -7 -7 -7 -7 -7 -7 -7 -7 -6 -6 -6 -6 -6 -7 -7 -7 -7 -7 -7 -7 -7 -7 -7 -7 -7 -8 -8 -8 -8 -8 -8 -8 -8 -8 -7 -7 -7 -8 -8 -8 -8 -8 -8 -8
-7 -7 -8 -7 -7 -7 -7 -7 -7 -7 -7 -7 -7 -7 -7 -7 -7 -7 -7 -7 -7 -7 -7 -7 -7 -7 -7 -7 -6 -6 -6 -7 -7 -7 -7 -7 -7 -7 -7 -7 -7 -8 -8 -8 -8 -8 -8 -8 -7 -7 -7 -7 -7 -7 -7 -7 -7 -7 -7 -7 -8 -8 -8
-7 -8 -8 -7 -7 -7 -7 -7 -7 -7 -7 -7 -7 -7 -7 -7 -7 -7 -7 -7 -7 -7 -7 -7 -7 -7 -7 -7 -7 -7 -7 -7 -7 -7 -7 -7 -7 -7 -7 -8 -8 -8 -8 -8 -7 -7 -7 -7 -7 -7 -7 -7 -7 -7 -7 -7 -7 -7 -7 -7 -7 -7 -8
-8 -8 -8 -8 -7 -7 -7 -7 -7 -7 -7 -7 -7 -8 -7 -7 -7 -7 -7 -7 -7 -7 -7 -7 -7 -7 -7 -7 -7 -7 -7 -6 -7 -7 -7 -7 -7 -7 -7 -8 -8 -8 -7 -7 -7 -7 -7 -7 -7 -7 -7 -7 -7 -7 -7 -7 -7 -7 -7 -7 -7 -7 -8
-8 -8 -8 -8 -7 -7 -7 -7 -7 -7 -7 -7 -8 -8 -8 -8 -7 -7 -7 -7 -7 -7 -7 -7 -7 -7 -7 -7 -7 -7 -7 -6 -7 -7 -7 -7 -7 -7 -7 -8 -8 -7 -7 -7 -7 -7 -7 -7 -7 -7 -7 -6 -6 -6 -6 -6 -6 -6 -6 -7 -7 -7 -8
-8 -8 -8 -8 -8 -7 -7 -7 -7 -7 -7 -8 -8 -8 -8 -8 -7 -7 -7 -7 -7 -7 -7 -7 -7 -7 -7 -7 -7 -7 -7 -7 -7 -7 -7 -7 -8 -8 -8 -8 -8 -7 -7 -7 -7 -7 -6 -6 -6 -6 -6 -6 -6 -6 -6 -6 -6 -6 -7 -7 -7 -7 -8
-8 -8 -8 -8 -8 -7 -7 -7 -7 -7 -7 -8 -8 -8 -8 -7 -7 -7 -7 -7 -7 -7 -7 -7 -7 -7 -7 -7 -7 -7 -7 -7 -7 -7 -7 -8 -8 -8 -8 -8 -8 -7 -7 -7 -7 -6 -6 -6 -6 -6 -6 -6 -6 -6 -6 -6 -6 -7 -7 -7 -7 -8 -8
-8 -8 -8 -8 -8 -8 -7 -7 -7 -7 -7 -8 -8 -8 -7 -7 -7 -7 -7 -7 -7 -7 -7 -7 -8 -8 -8 -7 -7 -7 -7 -7 -7 -7 -7 -8 -8 -8 -8 -8 -7 -7 -7 -7 -7 -7 -7 -7 -6 -6 -6 -6 -6 -6 -6 -6 -7 -7 -7 -7 -8 -8 -8
-8 -8 -8 -8 -8 -8 -8 -8 -8 -8 -7 -7 -7 -7 -7 -7 -7 -7 -7 -7 -7 -7 -7 -7 -8 -8 -8 -8 -7 -7 -7 -7 -7 -7 -8 -8 -8 -8 -8 -8 -7 -7 -7 -7 -7 -7 -7 -7 -6 -6 -6 -6 -6 -6 -6 -7 -7 -7 -7 -8 -8 -8 -9
-8 -8 -8 -8 -8 -8 -8 -8 -8 -8 -8 -7 -7 -7 -8 -7 -7 -7 -7 -7 -7 -7 -7 -7 -8 -8 -8 -8 -7 -7 -7 -7 -7 -7 -8 -8 -8 -8 -8 -8 -8 -7 -7 -7 -7 -7 -7 -7 -6 -6 -6 -6 -6 -7 -7 -7 -7 -8 -8 -8 -8 -9 -9
-8 -8 -8 -8 -8 -8 -8 -8 -8 -8 -8 -8 -7 -8 -8 -8 -8 -7 -7 -8 -7 -7 -7 -8 -8 -8 -8 -8 -8 -7 -7 -7 -7 -7 -7 -7 -7 -7 -7 -8 -8 -7 -7 -7 -7 -7 -7 -7 -7 -7 -7 -7 -7 -7 -7 -8 -8 -8 -8 -8 -8 -9 -9
-8 -8 -8 -8 -8 -8 -8 -8 -8 -8 -8 -8 -8 -8 -8 -8 -8 -8 -8 -8 -8 -7 -7 -8 -8 -8 -8 -8 -8 -7 -7 -7 -7 -7 -7 -7 -7 -7 -7 -7 -7 -7 -7 -7 -7 -7 -7 -7 -7 -7 -7 -7 -7 -8 -8 -8 -8 -8 -8 -8 -9 -9 -9
-8 -8 -8 -8 -8 -8 -8 -8 -8 -8 -8 -8 -8 -8 -8 -8 -8 -8 -9 -8 -8 -8 -8 -8 -8 -8 -8 -8 -8 -8 -8 -8 -8 -8 -8 -7 -7 -7 -7 -7 -7 -7 -7 -7 -7 -7 -7 -7 -7 -7 -7 -7 -8 -8 -8 -8 -8 -8 -8 -8 -9 -9 -9
-9 -9 -9 -9 -8 -8 -8 -8 -8 -8 -8 -8 -8 -8 -8 -9 -9 -9 -9 -9 -9 -8 -8 -8 -9 -9 -8 -8 -8 -8 -8 -8 -8 -8 -8 -8 -8 -8 -8 -8 -7 -7 -7 -7 -7 -7 -7 -7 -7 -7 -7 -8 -8 -8 -8 -8 -8 -8 -8 -9 -9 -9 -9
-9 -9 -9 -9 -9 -8 -8 -9 -9 -8 -8 -8 -8 -8 -9 -9 -9 -9 -9 -9 -9 -9 -9 -9 -9 -9 -9 -9 -9 -9 -8 -8 -8 -8 -8 -8 -8 -8 -8 -8 -8 -8 -8 -8 -8 -7 -7 -7 -7 -7 -8 -8 -8 -8 -8 -8 -8 -8 -9 -9 -9 -9 -10
-9 -9 -9 -9 -9 -8 -8 -9 -9 -9 -9 -9 -8 -9 -9 -9 -9 -9 -9 -9 -9 -9 -9 -9 -9 -9 -9 -9 -9 -9 -8 -8 -8 -8 -8 -8 -8 -8 -8 -8 -8 -8 -8 -8 -8 -8 -8 -8 -8 -8 -8 -8 -8 -8 -8 -8 -8 -9 -9 -9 -9 -9 -9
-9 -9 -9 -9 -9 -8 -8 -9 -9 -9 -9 -9 -9 -9 -9 -9 -9 -9 -9 -9 -9 -9 -9 -9 -9 -9 -9 -9 -9 -9 -9 -8 -8 -8 -8 -8 -8 -8 -8 -8 -8 -8 -8 -8 -8 -8 -8 -8 -8 -8 -8 -8 -9 -9 -9 -9 -9 -9 -9 -9 -9 -9 -10
-9 -9 -8 -8 -9 -9 -8 -9 -9 -9 -9 -9 -9 -9 -9 -9 -9 -9 -9 -9 -9 -9 -9 -9 -9 -9 -9 -9 -9 -9 -9 -9 -8 -8 -8 -8 -8 -8 -8 -8 -8 -8 -8 -8 -8 -8 -8 -8 -8 -8 -8 -9 -9 -9 -9 -9 -9 -9 -9 -9 -9 -9 -10
-8 -8 -8 -8 -9 -9 -8 -8 -9 -9 -9 -9 -9 -9 -9 -9 -9 -9 -9 -9 -9 -9 -9 -9 -9 -9 -9 -9 -9 -9 -9 -9 -9 -9 -9 -9 -8 -8 -8 -8 -8 -8 -8 -8 -8 -8 -8 -8 -8 -8 -9 -9 -9 -9 -9 -9 -9 -9 -9 -9 -9 -10 -10
-8 -8 -8 -8 -9 -9 -8 -8 -8 -9 -9 -9 -9 -9 -9 -9 -9 -9 -9 -9 -9 -9 -9 -9 -9 -9 -9 -9 -9 -9 -9 -8 -9 -9 -9 -9 -9 -9 -8 -8 -8 -8 -8 -8 -8 -8 -8 -8 -8 -9 -9 -9 -9 -9 -9 -9 -9 -9 -9 -9 -10 -10 -10
-8 -8 -8 -9 -9 -8 -8 -8 -8 -9 -9 -9 -9 -9 -9 -9 -9 -9 -9 -9 -9 -9 -9 -9 -9 -9 -9 -9 -9 -9 -9 -9 -9 -9 -9 -9 -9 -9 -9 -8 -8 -8 -8 -8 -8 -8 -8 -9 -9 -9 -9 -9 -9 -9 -9 -9 -9 -9 -10 -10 -10 -10 -10
-8 -9 -9 -8 -8 -8 -8 -8 -8 -9 -9 -9 -9 -9 -9 -9 -9 -9 -9 -9 -9 -9 -9 -9 -9 -9 -9 -9 -9 -9 -9 -9 -9 -9 -9 -9 -9 -9 -9 -8 -8 -8 -8 -8 -8 -8 -9 -9 -9 -9 -9 -9 -9 -9 -9 -9 -9 -10 -10 -10 -10 -10 -10
-9 -9 -8 -8 -8 -8 -8 -8 -8 -8 -8 -8 -9 -9 -9 -8 -9 -9 -9 -9 -9 -9 -9 -9 -9 -9 -9 -9 -9 -9 -9 -9 -9 -9 -9 -9 -9 -9 -8 -8 -8 -8 -8 -8 -8 -8 -9 -9 -9 -9 -9 -9 -9 -9 -9 -10 -10 -10 -10 -10 -10 -10 -10
-8 -8 -8 -8 -8 -8 -8 -8 -8 -8 -8 -9 -9 -10 -9 -9 -9 -9 -9 -9 -9 -9 -9 -9 -9 -9 -9 -9 -9 -9 -9 -9 -9 -9 -9 -9 -9 -8 -8 -8 -8 -8 -8 -8 -8 -9 -9 -9 -9 -9 -9 -9 -9 -9 -10 -10 -10 -10 -10 -10 -10 -10 -10
-8 -8 -8 -8 -8 -8 -8 -8 -8 -8 -8 -9 -9 -9 -9 -9 -9 -9 -9 -9 -9 -9 -9 -9 -9 -9 -9 -9 -9 -9 -9 -9 -9 -9 -9 -9 -8 -8 -8 -8 -8 -8 -8 -8 -8 -9 -9 -9 -9 -9 -9 -9 -9 -10 -10 -10 -10 -10 -10 -10 -10 -10 -11
-8 -8 -8 -8 -8 -9 -9 -8 -8 -8 -8 -9 -9 -9 -9 -9 -9 -8 -9 -9 -9 -9 -9 -8 -8 -8 -8 -9 -9 -9 -9 -9 -9 -9 -9 -8 -8 -8 -8 -8 -8 -8 -8 -8 -8 -9 -9 -9 -9 -9 -10 -9 -9 -10 -10 -10 -10 -10 -10 -10 -10 -10 -11
-8 -8 -8 -8 -9 -9 -9 -9 -9 -9 -9 -9 -9 -9 -9 -9 -9 -9 -9 -9 -9 -9 -9 -8 -8 -8 -8 -8 -9 -9 -9 -9 -9 -9 -8 -8 -8 -8 -8 -8 -8 -8 -8 -8 -9 -9 -9 -9 -9 -9 -10 -9 -10 -10 -10 -10 -10 -10 -10 -10 -10 -11 -11
-8 -8 -8 -9 -9 -9 -9 -9 -9 -9 -9 -9 -9 -9 -9 -9 -9 -9 -9 -9 -9 -9 -9 -9 -9 -9 -9 -8 -9 -9 -9 -9 -9 -8 -8 -8 -8 -8 -8 -8 -8 -8 -8 -8 -9 -9 -9 -9 -9 -9 -9 -9 -10 -10 -10 -10 -10 -10 -10 -10 -11 -11 -11
-8 -8 -8 -9 -9 -9 -9 -9 -9 -9 -9 -9 -9 -9 -9 -9 -9 -9 -9 -9 -9 -9 -9 -9 -9 -9 -9 -9 -9 -9 -9 -8 -8 -8 -8 -8 -8 -8 -8 -8 -8 -8 -8 -9 -9 -9 -9 -10 -10 -9 -9 -10 -10 -10 -10 -10 -10 -10 -10 -11 -11 -11 -11
-8 -8 -8 -8 -9 -8 -9 -9 -9 -9 -9 -9 -9 -9 -9 -9 -9 -9 -9 -9 -9 -9 -9 -9 -9 -9 -9 -9 -9 -9 -9 -8 -8 -8 -8 -8 -8 -8 -8 -8 -8 -8 -9 -9 -9 -9 -9 -10 -9 -9 -10 -10 -10 -10 -10 -10 -10 -10 -11 -11 -11 -11 -11
-8 -8 -8 -8 -9 -9 -9 -9 -9 -10 -9 -9 -9 -9 -9 -9 -9 -9 -9 -9 -9 -9 -9 -9 -9 -10 -9 -9 -9 -9 -9 -8 -8 -8 -8 -8 -8 -8 -8 -8 -8 -8 -9 -9 -9 -9 -9 -9 -10 -10 -10 -10 -10 -10 -10 -10 -10 -11 -11 -11 -11 -11 -11
Height
5910 5909 5909 5908 5908 5907 5907 5908 5908 5907 5907 5907 5906 5905 5905 5904 5903 5903 5902 5901 5901 5900 5899 5898 5898 5897 5896 5896 5895 5894 5894 5893 5893 5892 5891 5891 5890 5889 5889 5888 5888 5887 5887 5886 5885 5884 5883 5883 5882 5882 5881 5881 5881 5881 5881 5881 5880 5879 5878 5877 5876 5875 5875
5912 5911 5910 5910 5909 5909 5909 5909 5909 5908 5908 5907 5907 5906 5905 5904 5904 5903 5902 5902 5901 5900 5899 5899 5898 5897 5896 5896 5895 5895 5894 5893 5893 5892 5891 5891 5890 5890 5889 5888 5888 5887 5887 5886 5885 5884 5883 5883 5882 5881 5881 5881 5881 5880 5880 5879 5879 5878 5876 5875 5874 5873 5872
5913 5912 5912 5911 5910 5910 5910 5909 5909 5909 5908 5908 5907 5906 5905 5904 5904 5903 5903 5902 5901 5900 5899 5898 5898 5897 5896 5895 5895 5894 5893 5892 5892 5891 5891 5890 5890 5889 5888 5887 5887 5886 5886 5885 5885 5884 5884 5883 5882 5881 5880 5880 5880 5879 5879 5878 5877 5876 5875 5874 5873 5871 5870
5915 5914 5913 5912 5911 5911 5910 5910 5909 5909 5908 5907 5907 5906 5905 5904 5904 5903 5902 5902 5901 5899 5899 5898 5897 5896 5895 5894 5893 5893 5892 5891 5891 5890 5890 5889 5888 5888 5887 5887 5886 5885 5885 5885 5884 5884 5883 5882 5881 5880 5880 5879 5878 5877 5877 5876 5875 5874 5873 5872 5870 5869 5868
5916 5915 5914 5913 5912 5911 5911 5910 5909 5909 5908 5907 5907 5906 5905 5904 5903 5902 5902 5901 5900 5899 5898 5898 5897 5896 5895 5894 5893 5892 5891 5891 5890 5890 5889 5888 5888 5887 5887 5886 5886 5885 5884 5883 5883 5882 5881 5881 5880 5879 5878 5877 5876 5875 5874 5874 5872 5871 5870 5869 5868 5867 5865
5917 5915 5914 5913 5913 5912 5911 5910 5910 5909 5908 5907 5906 5905 5904 5903 5903 5902 5901 5901 5900 5899 5899 5899 5898 5897 5895 5894 5893 5892 5891 5890 5890 5889 5888 5888 5887 5887 5886 5886 5885 5884 5883 5882 5881 5881 5880 5879 5878 5877 5876 5875 5875 5874 5873 5872 5871 5869 5868 5867 5865 5864 5862
5917 5916 5915 5914 5914 5913 5912 5911 5910 5909 5908 5907 5906 5905 5904 5903 5903 5902 5901 5901 5900 5900 5900 5899 5898 5897 5896 5895 5893 5892 5891 5890 5890 5889 5888 5888 5887 5886 5886 5885 5884 5883 5882 5881 5881 5880 5879 5878 5877 5876 5875 5874 5873 5872 5871 5870 5869 5868 5866 5864 5863 5861 5860
5917 5916 5915 5914 5914 5913 5912 5911 5910 5909 5908 5907 5906 5905 5904 5903 5902 5902 5901 5901 5900 5900 5900 5899 5899 5898 5897 5895 5894 5893 5892 5891 5890 5889 5888 5887 5887 5886 5885 5884 5883 5882 5881 5880 5879 5879 5878 5877 5876 5875 5874 5873 5872 5871 5870 5869 5867 5866 5864 5862 5861 5859 5857
5917 5916 5915 5915 5914 5913 5912 5910 5909 5908 5907 5906 5905 5904 5903 5902 5901 5901 5901 5900 5900 5900 5899 5899 5898 5898 5897 5896 5894 5893 5892 5890 5889 5889 5888 5887 5886 5885 5884 5883 5882 5881 5880 5880 5879 5878 5877 5876 5875 5875 5874 5873 5871 5870 5869 5867 5866 5864 5862 5860 5858 5856 5854
5917 5916 5915 5915 5914 5913 5911 5909 5908 5907 5906 5904 5903 5902 5901 5900 5900 5899 5899 5899 5899 5898 5898 5898 5898 5897 5897 5896 5894 5893 5891 5890 5889 5888 5887 5886 5885 5884 5883 5882 5882 5881 5880 5879 5878 5877 5876 5875 5875 5874 5873 5871 5870 5869 5867 5865 5863 5861 5859 5856 5854 5852 5850
5917 5916 5916 5915 5914 5912 5911 5909 5908 5906 5904 5903 5901 5900 5899 5898 5898 5898 5898 5898 5898 5897 5897 5897 5896 5896 5896 5895 5894 5892 5890 5889 5888 5887 5886 5885 5884 5883 5882 5882 5881 5880 5879 5878 5877 5876 5875 5874 5873 5872 5871 5870 5868 5867 5865 5863 5860 5858 5855 5853 5851 5849 5847
5917 5917 5916 5915 5913 5911 5910 5909 5907 5905 5903 5901 5899 5897 5896 5896 5896 5896 5897 5897 5897 5897 5896 5896 5895 5895 5895 5894 5893 5891 5890 5888 5887 5886 5885 5884 5883 5882 5881 5881 5880 5879 5878 5877 5876 5875 5873 5872 5871 5870 5869 5868 5866 5864 5862 5860 5857 5855 5853 5851 5849 5847 5845
5917 5916 5915 5914 5912 5911 5909 5908 5906 5904 5901 5899 5897 5894 5893 5894 5894 5895 5896 5896 5897 5896 5895 5894 5894 5893 5893 5893 5892 5891 5889 5888 5887 5885 5884 5883 5882 5881 5880 5879 5878 5877 5876 5875 5874 5873 5872 5871 5870 5868 5867 5865 5863 5861 5859 5858 5856 5854 5852 5849 5847 5845 5843
5917 5916 5915 5913 5912 5910 5909 5907 5905 5903 5901 5898 5895 5893 5892 5893 5894 5895 5895 5896 5896 5895 5894 5894 5893 5892 5892 5891 5891 5890 5889 5888 5886 5885 5884 5882 5882 5881 5880 5879 5877 5876 5875 5874 5872 5871 5870 5869 5868 5866 5864 5862 5861 5860 5858 5856 5854 5852 5850 5848 5846 5844 5841
5917 5916 5914 5912 5911 5910 5908 5906 5905 5903 5901 5899 5897 5894 5894 5894 5895 5895 5895 5895 5895 5895 5894 5893 5892 5892 5891 5891 5890 5889 5888 5887 5886 5885 5884 5883 5882 5881 5880 5879 5877 5876 5874 5873 5871 5870 5869 5867 5866 5864 5862 5861 5860 5859 5857 5855 5853 5851 5849 5846 5844 5842 5839
5916 5916 5914 5912 5911 5910 5908 5907 5905 5903 5902 5901 5899 5898 5897 5896 5896 5896 5896 5895 5895 5894 5893 5892 5892 5892 5891 5891 5890 5889 5888 5887 5886 5885 5884 5883 5882 5881 5880 5878 5877 5875 5874 5872 5871 5869 5868 5866 5864 5863 5862 5861 5859 5858 5856 5854 5851 5849 5847 5845 5842 5840 5837
5916 5915 5914 5913 5911 5910 5908 5907 5905 5904 5903 5902 5901 5899 5898 5898 5898 5897 5896 5895 5895 5893 5892 5891 5891 5891 5891 5890 5890 5889 5888 5887 5886 5885 5884 5883 5881 5880 5879 5878 5877 5875 5874 5872 5870 5868 5866 5865 5864 5862 5861 5860 5859 5857 5854 5852 5850 5847 5845 5842 5840 5837 5834
5915 5914 5914 5912 5911 5910 5908 5907 5905 5904 5903 5902 5901 5900 5898 5898 5897 5897 5895 5895 5894 5893 5891 5890 5890 5890 5890 5889 5889 5888 5887 5887 5885 5884 5883 5882 5881 5880 5879 5877 5876 5875 5874 5871 5869 5867 5866 5865 5863 5862 5861 5859 5857 5855 5853 5850 5848 5845 5843 5840 5838 5835 5832
5914 5913 5913 5912 5910 5909 5907 5906 5905 5904 5903 5902 5900 5899 5897 5896 5896 5895 5894 5894 5893 5892 5890 5889 5889 5889 5888 5888 5888 5887 5887 5886 5885 5884 5884 5883 5882 5880 5878 5877 5876 5875 5873 5871 5869 5867 5866 5864 5863 5861 5860 5858 5856 5854 5851 5849 5846 5843 5841 5838 5835 5833 5830
5913 5912 5912 5911 5909 5907 5906 5905 5904 5902 5901 5900 5899 5897 5896 5895 5894 5894 5893 5893 5892 5891 5890 5888 5888 5887 5887 5887 5887 5886 5886 5885 5884 5884 5883 5882 5881 5880 5878 5877 5875 5874 5872 5870 5868 5867 5865 5864 5862 5861 5859 5857 5854 5852 5850 5847 5844 5842 5839 5836 5833 5830 5827
5912 5911 5910 5909 5907 5906 5904 5903 5902 5901 5899 5898 5897 5896 5894 5894 5893 5892 5892 5891 5891 5890 5888 5887 5886 5886 5885 5886 5886 5885 5885 5883 5882 5882 5881 5881 5880 5880 5878 5876 5874 5873 5871 5869 5868 5866 5865 5863 5861 5859 5857 5855 5852 5850 5848 5845 5842 5840 5837 5834 5831 5827 5824
5910 5909 5908 5907 5905 5904 5902 5901 5900 5899 5898 5897 5895 5894 5893 5892 5891 5891 5891 5890 5890 5888 5887 5886 5885 5884 5884 5885 5885 5884 5882 5881 5880 5879 5879 5879 5878 5878 5877 5875 5874 5872 5870 5868 5867 5865 5864 5862 5860 5858 5855 5853 5850 5848 5845 5843 5840 5837 5834 5831 5828 5825 5822
5908 5907 5906 5905 5904 5902 5900 5899 5898 5897 5896 5895 5894 5893 5892 5891 5891 5890 5889 5889 5888 5887 5886 5884 5883 5883 5884 5884 5883 5882 5881 5880 5879 5878 5878 5877 5877 5875 5874 5873 5872 5871 5869 5867 5865 5864 5862 5860 5858 5856 5853 5851 5848 5846 5843 5841 5838 5835 5832 5830 5827 5824 5821
5906 5905 5904 5903 5902 5900 5899 5898 5897 5896 5895 5894 5893 5892 5891 5890 5890 5889 5888 5888 5887 5886 5885 5883 5882 5882 5883 5883 5882 5881 5880 5879 5879 5878 5878 5877 5876 5874 5873 5872 5871 5869 5868 5866 5864 5862 5860 5858 5856 5854 5851 5849 5847 5844 5842 5839 5837 5834 5831 5828 5825 5822 5818
5904 5903 5902 5901 5900 5899 5897 5896 5895 5894 5893 5893 5892 5891 5890 5889 5889 5888 5887 5887 5886 5885 5884 5882 5882 5881 5881 5881 5880 5879 5879 5878 5878 5877 5877 5876 5875 5874 5872 5871 5870 5868 5866 5864 5862 5861 5859 5857 5854 5852 5850 5848 5845 5843 5840 5838 5835 5833 5830 5826 5823 5820 5816
5902 5901 5900 5899 5898 5897 5895 5894 5894 5893 5893 5892 5892 5891 5890 5888 5887 5886 5886 5885 5885 5884 5883 5882 5881 5881 5880 5880 5879 5878 5877 5876 5876 5876 5875 5875 5874 5873 5871 5869 5868 5866 5864 5862 5861 5859 5857 5855 5853 5851 5849 5846 5844 5842 5839 5837 5834 5831 5828 5824 5821 5818 5815
5900 5899 5898 5897 5896 5895 5894 5893 5893 5892 5892 5891 5891 5891 5890 5888 5886 5885 5884 5884 5883 5883 5882 5881 5880 5879 5879 5878 5877 5876 5875 5874 5874 5874 5873 5873 5872 5871 5869 5868 5866 5865 5863 5861 5859 5857 5855 5853 5851 5849 5847 5845 5843 5840 5838 5835 5832 5829 5826 5822 5820 5817 5813
5898 5897 5896 5895 5894 5893 5892 5891 5890 5889 5889 5888 5887 5888 5889 5888 5887 5885 5883 5882 5882 5881 5880 5879 5878 5877 5877 5876 5875 5875 5873 5873 5872 5872 5872 5871 5870 5869 5867 5866 5864 5863 5861 5859 5857 5856 5854 5852 5850 5848 5846 5843 5841 5839 5836 5833 5830 5827 5824 5821 5819 5815 5812
5895 5894 5893 5892 5891 5891 5889 5888 5886 5885 5884 5883 5882 5882 5884 5885 5885 5884 5882 5881 5880 5879 5878 5877 5875 5875 5875 5874 5873 5873 5872 5872 5871 5870 5870 5869 5868 5867 5866 5864 5863 5861 5859 5857 5856 5854 5852 5850 5848 5846 5844 5842 5840 5837 5834 5831 5828 5826 5823 5820 5817 5814 5810
5892 5892 5891 5890 5889 5887 5886 5885 5883 5881 5880 5880 5879 5878 5878 5879 5880 5881 5881 5879 5878 5877 5876 5875 5874 5873 5873 5872 5871 5871 5871 5870 5869 5868 5868 5868 5867 5865 5864 5863 5861 5859 5858 5856 5854 5852 5850 5848 5847 5845 5843 5841 5838 5836 5833 5830 5827 5825 5822 5819 5816 5812 5808
5890 5889 5888 5887 5885 5883 5881 5880 5878 5877 5877 5877 5877 5876 5874 5873 5874 5876 5878 5878 5877 5876 5875 5874 5872 5872 5871 5870 5869 5868 5868 5868 5867 5867 5867 5866 5865 5864 5863 5861 5860 5858 5856 5854 5852 5850 5849 5847 5845 5844 5842 5839 5837 5834 5832 5829 5827 5824 5821 5818 5814 5810 5806
5887 5886 5884 5883 5880 5877 5876 5875 5873 5873 5873 5874 5873 5873 5871 5871 5871 5873 5874 5875 5874 5873 5872 5872 5871 5870 5870 5869 5867 5867 5867 5867 5866 5866 5866 5865 5864 5863 5861 5860 5859 5857 5854 5852 5851 5849 5848 5846 5844 5842 5840 5838 5835 5833 5831 5828 5826 5823 5820 5816 5813 5809 5804
5885 5882 5881 5878 5875 5875 5876 5875 5872 5871 5872 5872 5871 5870 5870 5871 5872 5873 5873 5872 5872 5871 5870 5869 5868 5868 5867 5867 5867 5866 5866 5866 5866 5866 5865 5864 5863 5862 5860 5859 5858 5856 5853 5851 5850 5848 5846 5845 5843 5841 5839 5837 5834 5832 5830 5828 5825 5822 5819 5815 5811 5807 5803
5882 5880 5878 5876 5874 5875 5876 5874 5871 5870 5870 5870 5869 5868 5869 5871 5872 5873 5872 5871 5870 5870 5869 5868 5867 5866 5866 5865 5865 5865 5865 5865 5865 5865 5864 5863 5862 5860 5859 5858 5856 5854 5852 5850 5848 5847 5845 5844 5842 5840 5838 5836 5834 5832 5829 5827 5824 5821 5817 5814 5810 5806 5802
5879 5877 5876 5874 5873 5874 5873 5870 5869 5868 5867 5867 5866 5866 5867 5869 5870 5870 5870 5869 5867 5866 5866 5867 5867 5868 5867 5865 5864 5864 5864 5864 5864 5864 5863 5861 5860 5859 5857 5856 5854 5853 5851 5849 5847 5846 5845 5843 5841 5839 5837 5835 5833 5831 5828 5826 5823 5820 5816 5813 5809 5805 5801
5877 5875 5873 5872 5871 5871 5870 5867 5867 5866 5865 5865 5865 5864 5865 5866 5868 5868 5868 5867 5865 5863 5862 5863 5865 5867 5867 5865 5863 5862 5863 5863 5863 5862 5861 5860 5859 5857 5855 5854 5852 5851 5849 5848 5846 5845 5844 5842 5840 5839 5837 5835 5832 5830 5827 5825 5822 5819 5815 5812 5808 5804 5800
5874 5873 5871 5869 5868 5868 5867 5865 5864 5863 5863 5863 5863 5863 5863 5864 5866 5866 5867 5866 5864 5861 5860 5861 5863 5865 5865 5864 5861 5861 5861 5861 5861 5861 5860 5859 5857 5855 5853 5852 5851 5849 5848 5846 5845 5844 5843 5841 5840 5838 5836 5834 5832 5829 5826 5824 5821 5818 5814 5811 5807 5803 5799
5872 5871 5869 5867 5866 5866 5865 5864 5863 5862 5861 5861 5860 5860 5861 5863 5864 5865 5865 5866 5864 5861 5860 5861 5863 5864 5864 5862 5860 5859 5859 5859 5860 5860 5859 5857 5855 5853 5852 5850 5849 5848 5846 5845 5844 5843 5842 5840 5839 5837 5836 5833 5831 5828 5826 5823 5820 5817 5813 5809 5806 5802 5797
Wind_Speed
14 15 15 14 12 11 10 10 9 10 10 10 9 10 10 10 10 9 9 8 7 7 7 7 6 5 5 5 5 5 5 5 5 5 4 3 2 2 2 2 2 2 3 4 5 6 7 7 8 8 9 9 9 10 10 11 13 14 16 17 18 19 20
16 16 16 15 14 13 12 11 11 11 11 11 11 11 10 10 9 9 8 7 7 7 7 7 7 7 7 7 7 7 7 6 6 5 5 4 4 4 4 4 5 5 6 7 8 9 9 10 11 11 12 12 12 13 13 14 15 16 18 19 21 21 22
16 16 16 17 16 15 14 13 13 12 12 13 13 12 11 10 9 9 8 8 8 8 7 7 7 8 8 9 9 9 9 8 8 8 8 8 7 7 7 7 7 8 8 9 9 10 11 11 12 13 13 14 14 15 15 15 16 17 18 19 20 21 22
15 17 19 19 19 18 17 16 15 14 14 14 13 12 12 11 10 10 10 10 9 9 9 9 9 9 10 10 10 10 10 10 10 10 10 10 10 10 9 9 9 9 9 9 10 11 11 12 13 13 14 14 15 15 15 16 16 16 17 18 19 20 21
15 18 20 20 20 19 18 17 16 16 15 14 13 13 12 12 12 12 12 11 11 12 12 11 11 10 10 10 10 10 10 10 10 10 10 10 10 10 10 9 9 10 10 11 11 12 13 13 14 14 15 15 15 16 16 16 16 17 18 19 20 21 22
13 16 17 18 19 19 18 17 17 17 16 15 14 14 12 12 12 12 12 12 12 13 12 12 11 10 10 10 10 10 10 11 11 11 11 11 11 10 10 10 10 11 11 12 12 13 13 14 14 15 15 16 16 16 16 16 18 19 20 21 22 23 23
11 12 14 15 17 18 18 18 19 18 18 16 15 14 13 12 11 11 11 11 12 12 12 12 11 11 11 11 11 12 12 12 12 12 12 11 11 11 11 11 11 11 12 12 13 13 13 14 14 15 15 16 16 17 17 18 19 20 22 23 23 23 23
9 10 12 13 15 16 17 18 19 19 18 17 15 13 12 12 11 11 11 11 11 12 12 13 13 13 13 13 13 13 13 13 13 12 12 11 11 11 11 11 11 11 12 12 12 13 13 13 14 15 15 16 16 17 18 19 20 22 23 23 23 23 23
8 9 11 12 13 15 18 19 20 20 19 19 16 13 11 10 10 10 11 11 11 11 12 13 14 15 14 14 14 14 13 13 13 12 11 11 11 11 11 11 11 10 10 10 11 12 12 13 13 14 15 16 16 17 18 20 21 22 23 23 24 24 25
8 9 11 12 14 18 20 21 22 22 21 21 20 16 13 10 9 9 10 11 10 11 12 13 14 15 15 15 15 14 14 13 12 12 11 11 11 10 10 10 9 8 8 9 10 11 12 13 14 15 15 16 17 18 20 21 22 23 25 26 27 27 28
10 12 12 14 16 20 21 22 23 22 22 23 22 19 15 12 10 8 8 10 10 10 11 13 14 15 16 17 16 16 15 14 14 13 12 11 11 10 10 10 9 8 9 10 11 12 13 14 15 15 16 17 18 20 21 23 25 27 28 29 29 29 30
13 15 15 16 19 20 22 23 23 23 23 23 22 20 16 12 11 8 7 9 10 10 11 12 14 15 17 17 17 17 17 16 15 14 13 11 11 10 11 10 10 10 11 11 12 13 14 15 15 16 17 19 20 22 24 26 28 29 29 30 30 30 30
13 16 17 18 20 22 23 23 21 22 23 22 20 18 14 9 9 8 6 8 10 10 11 12 13 15 16 17 18 18 18 17 16 14 13 12 11 11 11 10 11 11 12 13 13 14 15 15 16 17 19 21 23 26 28 29 29 30 30 30 30 30 30
15 17 19 20 21 22 22 21 20 22 22 20 16 11 6 5 6 5 5 9 11 11 11 12 13 15 16 17 18 19 19 17 16 14 13 12 12 11 11 12 12 12 13 13 13 14 15 16 17 19 22 24 26 28 29 29 30 30 30 29 29 29 29
16 19 21 21 19 20 21 20 19 21 20 17 14 9 4 1 2 4 7 10 12 12 11 12 13 15 16 17 18 19 18 18 16 14 13 12 12 12 12 13 13 13 13 13 14 14 16 17 19 22 24 26 28 29 29 29 29 29 29 29 29 29 29
17 19 21 20 17 18 20 20 19 19 18 15 13 11 8 6 6 8 11 13 14 14 12 12 13 15 16 18 19 19 19 17 15 14 12 12 12 12 12 13 13 14 14 14 15 15 17 19 22 24 26 28 29 29 29 28 28 28 28 28 28 29 30
16 15 17 20 20 19 20 21 19 17 15 13 10 10 11 12 14 15 16 17 18 16 13 12 13 15 16 18 19 20 19 18 16 14 12 12 12 12 12 13 15 16 16 16 17 18 20 22 24 26 27 28 29 29 29 28 28 28 28 28 30 31 33
15 14 15 19 21 21 21 22 20 17 14 12 10 11 14 17 18 19 18 19 20 18 13 12 13 14 16 18 19 20 20 18 17 15 14 14 13 13 13 14 17 18 19 19 20 21 23 24 26 27 28 29 29 28 28 28 28 28 28 30 31 33 34
16 16 17 20 23 22 22 23 22 17 14 13 14 17 19 19 18 17 17 17 19 18 14 11 12 14 16 18 19 20 20 20 19 18 17 17 16 15 14 15 18 21 22 22 23 24 24 26 27 28 29 29 28 28 27 27 27 28 29 31 33 34 35
18 19 20 22 24 24 24 24 23 18 13 13 14 15 16 15 14 14 14 15 16 16 13 12 12 14 15 17 19 20 20 20 20 20 19 19 18 17 17 17 19 21 23 24 25 25 26 27 28 29 29 28 28 27 26 26 27 29 31 32 33 34 33
20 21 22 23 25 25 24 23 22 17 12 12 12 12 11 11 11 11 12 13 14 14 13 12 12 13 15 16 18 19 19 19 19 20 19 19 20 19 20 20 21 22 24 25 25 26 27 28 29 29 29 28 27 27 26 27 29 30 32 33 33 33 33
21 22 24 25 26 25 21 20 19 15 11 11 11 10 9 9 10 10 10 12 13 13 13 12 12 13 15 16 17 18 18 18 19 20 20 20 20 20 21 22 23 24 24 25 25 26 28 29 29 29 28 27 27 26 27 28 30 32 32 32 32 32 32
22 24 26 26 26 23 19 17 16 13 11 11 11 10 9 10 10 10 10 11 12 13 13 13 13 14 15 16 17 18 19 19 20 21 21 21 21 20 21 23 24 24 24 25 25 27 28 29 29 28 27 27 26 26 28 29 31 31 31 30 30 30 30
25 27 27 26 24 22 18 15 13 12 12 12 12 12 12 12 11 10 10 11 12 13 13 14 15 15 15 16 18 19 20 21 22 22 22 22 21 20 20 22 24 24 24 25 26 27 28 28 28 27 26 26 25 26 28 29 30 29 29 29 29 29 30
27 29 28 26 24 23 20 15 13 13 13 13 14 14 14 13 12 11 11 13 14 14 15 16 16 16 16 17 19 20 21 21 22 23 23 22 22 20 21 22 23 23 24 25 26 27 27 27 26 26 25 24 25 27 28 28 28 27 27 28 28 29 29
29 30 29 27 26 26 24 20 17 16 15 16 17 16 16 15 13 12 13 14 15 16 16 17 18 17 17 18 19 20 20 21 22 22 22 22 22 21 21 22 23 23 24 25 25 26 26 25 25 24 23 23 25 27 27 27 26 26 27 28 28 29 29
30 30 30 29 28 28 27 25 23 21 19 20 20 19 19 18 15 13 14 15 15 16 17 18 18 18 18 18 18 19 19 19 20 21 22 22 22 22 22 22 23 23 24 24 25 25 25 24 23 22 22 24 26 26 26 26 26 26 27 27 28 29 30
30 30 30 30 30 29 28 27 26 24 21 22 23 22 21 20 17 16 15 15 15 16 17 17 18 18 18 18 19 19 19 18 18 19 20 21 21 21 21 22 23 23 23 23 24 24 23 23 22 22 22 24 25 26 26 25 26 26 26 27 28 30 31
30 31 31 31 31 31 29 29 28 27 25 25 26 24 21 21 20 19 18 17 16 17 16 16 16 16 16 17 18 18 17 17 17 17 18 19 19 20 21 22 22 22 22 23 23 22 22 22 21 21 22 24 25 25 25 25 25 25 26 28 29 30 31
31 31 31 31 31 31 30 29 29 30 28 27 26 24 23 22 21 20 20 20 19 18 17 16 15 15 15 16 16 15 15 15 16 15 16 16 18 19 20 21 21 21 21 21 21 21 21 21 20 21 22 24 25 25 25 25 25 25 27 28 30 31 32
31 30 29 28 28 28 29 28 29 30 29 28 26 25 25 24 21 19 20 21 20 19 17 15 14 14 14 15 16 15 15 15 15 15 15 16 17 19 20 21 20 20 20 20 20 20 20 20 20 21 23 24 24 25 25 24 24 26 27 29 31 32 33
29 28 28 27 26 27 27 26 28 29 28 27 27 26 28 27 23 19 19 20 21 20 17 13 13 13 13 14 14 15 15 15 15 15 16 17 18 19 20 20 20 20 20 19 19 19 19 19 19 21 22 23 24 24 24 24 25 26 28 30 31 33 34
27 27 27 26 27 27 26 24 25 27 27 27 26 26 28 28 24 20 19 20 21 20 15 12 12 12 11 11 12 12 13 14 15 16 17 18 19 20 20 20 20 20 19 19 19 19 19 18 19 21 22 23 23 24 24 25 26 27 28 30 32 33 35
26 26 26 27 27 26 24 23 25 26 25 24 23 24 25 24 22 22 22 21 20 18 14 13 12 10 8 9 10 11 13 14 15 16 17 18 20 20 20 20 19 19 19 19 19 19 18 18 19 20 22 22 23 23 24 25 26 27 29 30 32 34 35
25 25 25 26 24 21 20 23 25 24 22 20 21 21 22 21 20 21 23 22 19 15 13 13 12 9 8 9 10 11 13 14 15 17 18 18 19 19 19 19 19 19 19 18 18 18 18 18 18 20 21 22 23 23 24 25 26 27 29 30 32 33 35
22 22 23 24 23 20 20 22 23 23 23 22 21 20 18 18 19 21 22 21 16 12 10 10 9 8 9 9 10 11 13 15 16 18 19 18 18 18 18 18 19 19 18 17 18 18 18 18 18 19 20 21 22 23 24 25 26 27 29 30 32 33 35
20 20 21 23 22 20 20 21 23 24 25 24 22 19 17 16 16 18 19 16 11 8 6 4 4 5 8 9 10 12 14 15 17 19 19 19 18 18 18 18 18 18 18 17 18 18 18 17 18 19 20 21 22 23 24 25 26 27 29 30 32 34 36
17 18 19 21 21 20 20 21 22 24 26 24 20 18 16 14 13 15 14 12 8 5 3 1 3 6 9 10 11 13 14 16 18 19 19 20 19 18 18 18 17 17 17 17 17 17 17 17 17 18 19 21 22 23 24 25 26 27 29 31 32 34 37
Wind_Direction
21 26 30 30 27 21 13 9 8 9 10 10 10 11 12 13 15 17 16 13 10 11 14 17 18 19 18 12 9 9 10 12 18 23 28 34 33 15 10 7 344 318 313 309 300 301 308 314 313 309 307 306 302 298 292 288 288 290 291 293 293 293 293
28 28 30 32 31 27 19 13 10 7 6 4 3 4 3 4 6 8 4 359 358 360 360 359 360 359 358 356 354 352 352 353 352 349 344 340 332 326 326 322 315 314 312 310 309 310 310 309 306 305 305 304 302 300 297 294 294 294 295 296 297 296 296
33 32 32 33 32 29 23 17 11 7 4 3 1 360 356 354 355 353 349 347 347 345 343 342 344 346 346 344 343 340 338 335 333 331 330 327 324 324 325 323 319 317 314 312 309 306 303 302 302 302 303 303 302 300 300 301 302 302 302 301 300 300 299
41 40 40 37 35 33 29 24 18 12 7 4 0 358 353 348 345 343 340 338 336 332 330 331 335 337 337 335 335 332 329 327 327 327 326 325 325 325 325 323 318 314 310 306 303 301 301 301 301 302 304 305 306 307 310 313 312 311 308 306 305 304 303
53 51 47 42 38 37 34 31 26 21 15 9 3 358 352 347 341 336 332 330 328 324 324 328 331 332 331 330 329 328 326 324 324 325 325 325 323 321 318 315 311 307 306 305 304 304 304 306 307 309 312 314 316 319 320 319 316 313 312 310 309 308 307
61 55 48 42 38 35 33 30 27 21 16 12 8 1 355 349 342 334 330 328 324 322 324 327 327 327 327 325 322 321 319 319 319 319 320 319 316 313 309 307 306 305 305 305 306 308 311 314 316 318 320 321 321 321 320 317 315 314 314 313 312 311 310
62 47 37 36 35 33 31 28 24 18 12 7 3 359 354 348 342 336 333 330 326 326 328 327 324 323 321 317 314 313 311 311 313 313 313 312 309 306 305 305 305 305 306 309 313 319 323 324 325 326 325 324 321 319 317 316 316 316 315 313 312 311 310
51 31 17 21 28 26 22 20 17 12 6 360 353 347 344 343 340 335 331 328 327 329 329 325 322 319 316 312 309 308 309 310 311 312 312 311 309 308 306 306 306 309 315 323 328 330 330 329 328 326 323 320 317 316 316 317 317 316 315 314 314 315 316
28 18 6 9 16 10 6 7 6 2 358 353 344 333 325 326 331 332 329 325 325 328 328 325 322 319 315 312 310 310 311 311 312 313 314 314 313 312 310 309 312 319 326 330 330 327 326 324 322 319 316 315 315 316 318 318 318 317 318 320 323 326 327
14 14 7 7 3 356 355 357 355 352 349 345 339 328 314 305 308 317 322 323 325 326 328 328 326 322 318 315 314 314 314 314 316 318 319 318 316 313 311 310 313 318 321 321 321 320 319 317 315 315 315 316 317 320 322 323 323 325 328 330 332 332 331
13 10 5 0 353 347 347 347 345 345 342 337 332 323 310 293 286 295 309 318 323 325 327 329 328 324 320 318 317 316 315 317 320 321 320 318 315 310 305 301 302 307 311 313 314 315 314 315 315 317 320 321 323 326 329 331 332 334 334 334 333 333 331
8 5 359 353 347 342 341 341 341 341 337 332 325 315 305 285 271 276 297 310 316 321 326 329 329 326 322 320 318 316 316 319 321 321 320 317 313 306 300 296 299 305 310 313 315 316 317 319 321 324 326 328 330 334 336 337 336 335 334 333 332 332 330
359 360 357 350 345 343 342 342 344 343 338 334 323 306 293 275 261 265 290 304 309 318 325 328 328 326 323 320 318 316 316 319 320 320 321 319 315 309 305 306 308 311 315 318 319 321 323 325 328 330 332 334 337 338 338 337 335 334 333 332 331 330 329
355 355 352 345 345 348 350 352 352 348 345 345 340 321 292 261 254 261 289 299 301 310 320 325 325 324 321 318 316 316 317 319 320 321 321 321 320 318 317 317 316 316 318 320 322 325 328 332 334 336 338 338 339 338 336 335 333 332 332 331 330 330 329
349 352 349 343 346 354 0 2 358 353 351 356 4 13 28 23 271 293 302 299 297 300 310 320 324 323 319 317 316 317 318 319 319 319 321 322 323 322 321 319 317 318 321 324 328 332 335 338 341 342 341 339 337 335 334 333 332 331 330 330 330 330 329
343 354 357 355 355 357 359 1 0 357 356 357 6 20 23 11 349 328 312 302 297 295 303 316 321 320 318 316 317 317 317 316 315 316 320 321 321 321 320 322 323 326 329 333 336 339 342 345 345 344 340 337 335 333 332 331 331 331 331 331 331 331 330
339 350 357 2 2 356 351 352 354 355 354 352 4 20 13 358 345 330 313 304 298 294 300 312 317 318 317 317 317 316 315 313 310 311 314 316 318 320 324 332 337 338 338 340 342 344 346 346 345 342 338 335 334 332 332 332 332 332 333 333 333 332 330
333 334 339 350 354 352 349 347 346 347 344 329 317 320 327 329 328 320 311 306 301 295 299 311 316 316 317 316 316 314 313 311 307 306 309 312 317 320 325 335 341 342 341 342 344 346 346 345 342 339 337 335 334 333 333 333 333 334 334 334 332 330 328
330 329 331 337 341 343 346 346 345 343 339 324 305 299 305 311 313 312 311 311 304 297 302 313 316 316 315 314 313 312 311 310 309 308 310 312 316 319 321 326 333 337 339 342 344 344 343 342 340 338 337 335 334 333 333 334 335 335 334 333 331 329 327
327 326 326 329 333 336 339 341 342 339 331 323 309 300 301 304 305 310 314 313 307 304 307 314 315 313 312 311 311 311 312 312 312 312 311 312 316 319 317 318 323 329 334 338 342 342 340 340 339 338 337 335 334 333 334 335 336 335 333 332 331 330 330
317 318 321 325 328 331 333 335 336 333 324 315 305 298 299 299 300 307 311 310 308 306 308 311 311 309 309 310 312 313 314 315 313 311 310 312 316 318 318 319 321 325 329 334 337 338 338 339 338 337 336 334 333 334 336 337 336 335 334 333 334 335 335
311 316 321 323 324 326 328 329 328 323 315 307 297 291 294 294 295 301 305 306 305 304 305 307 307 306 308 311 313 313 313 312 310 308 309 311 312 312 316 320 322 325 329 332 333 335 337 338 337 336 335 333 334 336 338 337 336 336 336 337 337 338 339
313 318 321 321 321 322 322 322 319 311 302 296 289 285 290 292 293 298 302 302 302 302 304 305 304 305 309 312 312 310 309 309 311 312 312 312 311 310 314 319 323 326 328 329 331 334 336 337 336 335 334 334 335 337 338 337 337 338 338 339 340 341 343
313 315 317 317 317 317 316 314 306 292 283 282 280 279 285 287 288 293 297 297 298 299 298 299 301 303 308 310 309 309 312 315 318 318 317 315 313 313 317 321 323 325 326 328 331 335 335 335 334 334 334 335 336 337 338 338 338 338 339 341 343 345 347
308 309 311 312 312 312 310 305 292 274 266 270 272 271 275 279 281 286 290 290 291 293 293 295 299 302 306 309 311 314 318 321 321 320 318 317 315 315 318 321 323 324 326 329 333 334 334 333 333 334 335 336 336 338 338 338 338 339 342 345 347 348 349
301 304 307 309 309 307 304 300 294 282 270 269 270 266 265 268 271 275 281 284 286 289 291 294 297 301 306 309 314 317 319 319 319 317 317 316 316 316 319 321 323 326 329 331 333 333 333 332 332 334 335 336 337 338 338 338 339 342 346 348 349 348 347
297 301 305 307 306 305 304 303 303 299 288 278 272 266 262 264 266 269 274 280 285 288 291 294 296 299 303 306 311 313 313 314 316 315 314 314 314 316 319 322 325 328 330 332 333 332 331 331 333 335 336 337 338 338 338 340 343 346 348 349 348 347 346
297 301 304 304 302 302 302 299 297 294 284 271 264 260 261 265 268 269 272 276 282 286 290 293 295 297 301 305 308 308 308 312 316 314 313 314 315 318 322 324 327 329 331 333 333 331 330 332 335 337 337 337 338 338 340 342 345 347 349 348 346 346 346
300 302 301 300 299 297 296 294 291 287 279 270 261 255 256 261 263 265 270 274 279 285 290 292 294 299 304 306 307 308 310 314 317 316 315 316 318 321 324 325 327 329 332 333 332 331 332 335 337 337 336 337 339 339 342 344 346 348 347 346 346 346 346
300 300 299 299 298 296 294 293 291 287 284 280 271 256 250 255 255 256 263 272 278 283 288 293 298 305 309 308 309 314 317 318 319 319 319 320 321 323 324 326 328 331 332 332 332 333 335 337 336 335 337 339 340 341 344 346 346 346 346 346 346 347 347
298 298 299 300 299 295 292 289 287 284 283 284 278 261 249 248 245 244 255 268 275 280 285 293 304 311 312 311 312 317 321 323 324 323 323 323 324 325 326 328 330 332 332 332 334 335 336 336 335 336 339 340 341 343 345 345 345 345 346 346 347 347 348
295 297 299 300 295 291 289 284 280 281 283 285 282 267 254 249 244 242 251 260 265 271 278 290 303 309 311 313 314 317 321 325 326 325 326 327 328 329 330 331 331 332 333 334 335 336 337 337 337 338 340 341 342 344 344 343 344 345 346 347 347 347 349
293 295 298 299 295 298 302 297 289 289 292 295 290 275 262 259 259 261 266 267 265 266 272 284 293 297 303 311 315 320 325 327 327 328 330 331 331 332 332 332 332 334 334 335 336 337 338 338 338 339 340 341 343 344 343 343 344 345 346 347 347 349 350
291 294 298 299 301 309 313 306 299 298 297 297 293 279 266 264 269 275 282 282 271 263 268 280 284 286 300 315 321 327 330 329 328 329 330 331 332 332 331 331 333 336 336 335 337 339 339 337 337 339 340 341 342 343 343 344 344 345 347 348 348 350 351
289 292 296 298 303 309 306 299 300 303 297 293 293 285 271 265 269 279 286 282 264 249 257 274 277 280 302 319 328 334 333 330 329 328 328 330 331 329 329 332 337 338 336 336 338 339 337 335 336 338 339 340 343 343 343 344 345 347 348 348 349 350 350
288 291 294 296 299 301 297 295 299 303 302 300 298 292 278 265 268 281 288 281 261 245 254 268 267 276 302 323 335 338 335 332 329 327 326 326 327 327 331 337 340 338 336 337 339 338 335 333 334 335 337 341 344 344 344 345 346 348 349 349 350 351 350
288 290 292 295 297 297 296 294 296 303 310 310 303 291 276 264 271 286 289 279 258 238 237 247 257 286 310 327 338 339 337 334 329 326 323 323 326 330 335 339 339 337 336 337 338 335 330 328 329 332 337 342 345 345 345 345 347 349 350 350 351 351 351
287 290 292 293 295 296 296 294 295 302 308 309 300 284 267 260 275 290 287 272 253 223 196 215 303 311 316 328 338 340 337 333 328 323 321 323 327 332 336 338 338 336 335 336 335 331 326 323 325 330 337 342 345 345 344 345 348 350 351 351 352 352 352